Regional Weather Roundup
Issued by NWS

Home | Current Version | Previous Version | Graphics & Text | Print | Product List | Glossary On
Versions: 1 2 3 4 5 6 7 8 9 10 11 12 13 14 15 16 17 18 19 20 21 22 23 24 25 26 27 28 29 30 31 32 33 34 35 36 37 38 39 40 41 42 43 44 45 46 47 48 49 50
000
ASUS45 KCYS 280610
RWRWY

WYOMING REGIONAL WEATHER ROUNDUP
NATIONAL WEATHER SERVICE CHEYENNE WY
1100 PM MST FRI FEB 27 2015

NOTE:  "FAIR" INDICATES FEW OR NO CLOUDS BELOW 12,000 FEET
WITH NO SIGNIFICANT WEATHER AND/OR OBSTRUCTIONS TO VISIBILITY.

WYZ001-280700-
YELLOWSTONE NATIONAL PARK

CITY           SKY/WX    TMP DP  RH WIND       PRES   REMARKS
LK YELLOWSTONE   N/A     -2  -6  83 CALM      29.77R
6HR MIN TEMP:  -2; 6HR MAX TEMP:  20;

W YELLOWSTONE  NOT AVBL

$$
WYZ002>013-054>058-071-098>099-280700-
NORTHERN WYOMING

CITY           SKY/WX    TMP DP  RH WIND       PRES   REMARKS
JACKSON        CLOUDY    16  16 100 N7        29.76S WCI   6
CODY           FAIR      16   7  67 NW3       29.90F
GREYBULL       CLOUDY    24  10  55 W8        29.94S WCI  15
6HR MIN TEMP:  24; 6HR MAX TEMP:  28;

WORLAND        CLOUDY    20  14  77 SW3       29.93S
6HR MIN TEMP:  20; 6HR MAX TEMP:  27;

SHERIDAN       FAIR       8  -2  63 CALM      29.98S
6HR MIN TEMP:   8; 6HR MAX TEMP:  15;

BUFFALO        FAIR      13  -3  49 N9        29.92S WCI   1
6HR MIN TEMP:   8; 6HR MAX TEMP:  19;

GILLETTE       FAIR      13   8  81 W7        29.93R WCI   3
6HR MIN TEMP:   7; 6HR MAX TEMP:  23;

HULETT         FAIR      19  10  68 SW8       29.93S WCI   9
NEWCASTLE      FAIR      14   9  79 SE8       29.97S WCI   3

$$
WYZ014>020-022>026-101>103-280700-
CENTRAL WYOMING

CITY           SKY/WX    TMP DP  RH WIND       PRES   REMARKS
BIG PINEY      LGT SNOW  18  13  80 NE5       29.76S WCI  11
6HR MIN TEMP:  17; 6HR MAX TEMP:  25; 6HR PCP: TRACE;

PINEDALE       FLURRIES   9   7  92 NW7       29.77S WCI  -3
DUBOIS         SNOW      10   9  92 CALM      29.79S VSB 1/2
LANDER         CLOUDY    15   6  67 CALM      29.87S
6HR MIN TEMP:   7; 6HR MAX TEMP:  15;

RIVERTON       CLOUDY    13   7  77 SW6       29.89R WCI   4
6HR MIN TEMP:  10; 6HR MAX TEMP:  14;

CASPER         CLOUDY    16  11  80 NE6       29.87R WCI   7
6HR MIN TEMP:  11; 6HR MAX TEMP:  26;

DOUGLAS        FAIR      10   6  84 SE3       29.90S
6HR MIN TEMP:   9; 6HR MAX TEMP:  23;


$$
WYZ021-027>030-104>119-280700-
SOUTHERN WYOMING

CITY           SKY/WX    TMP DP  RH WIND       PRES   REMARKS
EVANSTON       FAIR      20  16  84 E5        29.70F WCI  13
6HR MIN TEMP:  20; 6HR MAX TEMP:  31;

FORT BRIDGER   FAIR      20  18  89 S8        29.74S WCI  11
ROCK SPRINGS   FAIR      22  13  68 CALM      29.74S
6HR MIN TEMP:  21; 6HR MAX TEMP:  29;

DIXON          FAIR      20  10  65 E7        29.79F WCI  11
RAWLINS        MOCLDY    15   7  70 CALM      29.77S
6HR MIN TEMP:  10; 6HR MAX TEMP:  29;

SARATOGA       FAIR      10   5  79 SE6       29.77S WCI   1
LARAMIE        FAIR       1  -3  83 SW7       29.76S WCI -12
6HR MIN TEMP:   1; 6HR MAX TEMP:  14;

CHEYENNE       FAIR       4   1  88 SW7       29.82F WCI  -8
6HR MIN TEMP:   5; 6HR MAX TEMP:  11; 6HR PCP: TRACE;

TORRINGTON     FAIR      12   6  77 SE10      29.95F WCI  -1
6HR MIN TEMP:  12; 6HR MAX TEMP:  22;

PINE BLUFFS    FAIR       7   3  85 S13       29.92F WCI  -9

$$


USA.gov is the U.S. government's official web portal to all federal, state and local government web resources and services.